Regional Weather Roundup
Issued by NWS

Home | Current Version | Previous Version | Graphics & Text | Print | Product List | Glossary On
Versions: 1 2 3 4 5 6 7 8 9 10 11 12 13 14 15 16 17 18 19 20 21 22 23 24 25 26 27 28 29 30 31 32 33 34 35 36 37 38 39 40 41 42 43 44 45 46 47 48 49 50
000
ASUS43 KBIS 030410
RWRND

NORTH DAKOTA REGIONAL WEATHER ROUNDUP
NATIONAL WEATHER SERVICE BISMARCK ND
1000 PM CST FRI DEC 02 2016

NOTE: "FAIR" INDICATES FEW OR NO CLOUDS BELOW 12,000 FEET WITH NO
SIGNIFICANT WEATHER AND/OR OBSTRUCTIONS TO VISIBILITY.


NDZ001>003-009>011-017-030500-
NORTHWEST NORTH DAKOTA

CITY           SKY/WX    TMP DP  RH WIND       PRES   REMARKS
WILLISTON      CLEAR     24  22  91 S3        30.05F
MINOT          CLOUDY    29  26  89 S9        30.11F
MINOT AFB      CLOUDY    29  26  88 S10       30.10F WCI  19
$$

NDZ018>021-031>035-040>046-030500-
SOUTHWEST NORTH DAKOTA

CITY           SKY/WX    TMP DP  RH WIND       PRES   REMARKS
BISMARCK       CLOUDY    20  18  92 SE5       30.19F WCI  13
DICKINSON      CLEAR     18  16  92 S10       30.07F WCI   6
GARRISON         N/A     24  22  91 S8        30.13S WCI  15
HETTINGER ARPT CLEAR     19  18  95 SE3       30.13F
$$

NDZ004>008-012>016-024-026-027-054-030500-
NORTHEAST NORTH DAKOTA

CITY           SKY/WX    TMP DP  RH WIND       PRES   REMARKS
GRAND FORKS    CLOUDY    31  20  63 SW6       30.25S
GRND FRKS AFB  CLOUDY    30  20  66 SW6       30.25S
$$

NDZ022-023-025-028>030-036>039-047>053-030500-
SOUTHEAST NORTH DAKOTA

CITY           SKY/WX    TMP DP  RH WIND       PRES   REMARKS
FARGO          CLOUDY    28  19  69 SW10      30.29S WCI  19
JAMESTOWN      CLOUDY    22  18  85 S6        30.23F WCI  14
$$




USA.gov is the U.S. government's official web portal to all federal, state and local government web resources and services.